TimeCST,TemperatureF,Dew PointF,Humidity,Sea Level PressureIn,VisibilityMPH,Wind Direction,Wind SpeedMPH,Gust SpeedMPH,PrecipitationIn,Events,Conditions,WindDirDegrees,DateUTC
12:56 AM,44.1,43.0,96,30.26,8.0,North,4.6,-,0.00,,Clear,350,2012-11-17 06:56:00
1:56 AM,43.0,42.1,97,30.26,8.0,North,3.5,-,0.00,,Clear,350,2012-11-17 07:56:00
2:56 AM,43.0,43.0,100,30.27,8.0,North,3.5,-,0.00,Rain,Light Rain,360,2012-11-17 08:56:00
3:56 AM,41.0,41.0,100,30.27,6.0,NNW,3.5,-,0.00,,Clear,340,2012-11-17 09:56:00
4:56 AM,39.9,39.9,100,30.28,4.0,Calm,Calm,-,0.00,,Clear,0,2012-11-17 10:56:00
5:04 AM,39.2,39.2,100,30.28,1.8,Calm,Calm,-,N/A,,Clear,0,2012-11-17 11:04:00
5:11 AM,39.2,39.2,100,30.28,2.0,Calm,Calm,-,N/A,,Clear,0,2012-11-17 11:11:00
5:26 AM,39.2,39.2,100,30.29,6.0,Calm,Calm,-,N/A,,Clear,0,2012-11-17 11:26:00
5:56 AM,37.0,37.0,100,30.30,4.0,Calm,Calm,-,0.00,,Clear,0,2012-11-17 11:56:00
6:56 AM,44.1,43.0,96,30.31,10.0,NNE,8.1,-,0.00,,Clear,20,2012-11-17 12:56:00
7:56 AM,50.0,46.0,86,30.33,10.0,NE,8.1,-,N/A,,Clear,40,2012-11-17 13:56:00
8:56 AM,55.9,46.0,69,30.33,10.0,NNE,11.5,-,N/A,,Partly Cloudy,30,2012-11-17 14:56:00
9:56 AM,59.0,44.1,58,30.33,10.0,NE,13.8,-,N/A,,Clear,50,2012-11-17 15:56:00
10:56 AM,61.0,44.1,54,30.32,10.0,NNE,13.8,-,N/A,,Partly Cloudy,30,2012-11-17 16:56:00
11:56 AM,64.0,44.1,48,30.28,10.0,NE,12.7,-,N/A,,Partly Cloudy,50,2012-11-17 17:56:00
12:56 PM,64.9,44.1,47,30.26,10.0,North,11.5,-,N/A,,Partly Cloudy,10,2012-11-17 18:56:00
1:56 PM,64.9,44.1,47,30.25,10.0,NNE,11.5,-,N/A,,Clear,30,2012-11-17 19:56:00
2:56 PM,64.9,44.1,47,30.24,10.0,North,8.1,-,N/A,,Clear,360,2012-11-17 20:56:00
3:56 PM,63.0,42.1,46,30.24,10.0,North,9.2,-,N/A,,Clear,360,2012-11-17 21:56:00
4:56 PM,57.9,41.0,53,30.25,10.0,NNE,6.9,-,N/A,,Clear,20,2012-11-17 22:56:00
5:30 PM,55.4,41.0,58,30.25,10.0,North,4.6,-,N/A,,Clear,10,2012-11-17 23:30:00
5:56 PM,54.0,41.0,62,30.27,10.0,North,3.5,-,N/A,,Clear,360,2012-11-17 23:56:00
6:56 PM,51.1,41.0,68,30.29,10.0,North,4.6,-,N/A,,Clear,360,2012-11-18 00:56:00
7:56 PM,51.1,41.0,68,30.30,10.0,North,6.9,-,N/A,,Clear,10,2012-11-18 01:56:00
8:56 PM,50.0,41.0,71,30.30,10.0,NNE,6.9,-,N/A,,Scattered Clouds,30,2012-11-18 02:56:00
9:56 PM,48.9,39.9,71,30.30,10.0,NE,5.8,-,N/A,,Clear,40,2012-11-18 03:56:00
10:56 PM,50.0,41.0,71,30.29,10.0,NNE,8.1,-,N/A,,Clear,20,2012-11-18 04:56:00
11:56 PM,50.0,39.0,66,30.29,10.0,NE,6.9,-,N/A,,Clear,40,2012-11-18 05:56:00